This is the latest recevied weather packets stored in our database for station/object WB4FAY-4. If no packets are shown the sender has not sent any weather packets the latest 1 day(s).
| Time | Temp. | Humidity | Pressure | Rain* | Wind** | Luminosity | Snow |
|---|---|---|---|---|---|---|---|
| 1778045417 | 21.67° C | 72% | 1013.5 hPa | 0 mm | 1.79 m/s, 224° | - | - |
| 1778045117 | 22.22° C | 71% | 1013.5 hPa | 0 mm | 2.24 m/s, 195° | - | - |
| 1778044818 | 22.22° C | 71% | 1013.4 hPa | 0 mm | 0.89 m/s, 196° | - | - |
| 1778044517 | 22.22° C | 71% | 1013.3 hPa | 0 mm | 0.89 m/s, 189° | - | - |
| 1778044217 | 21.67° C | 71% | 1013.3 hPa | 0 mm | 1.34 m/s, 203° | - | - |
| 1778043917 | 22.22° C | 71% | 1013.2 hPa | 0 mm | 1.34 m/s, 200° | - | - |
| 1778043617 | 22.22° C | 71% | 1013.3 hPa | 0 mm | 0.89 m/s, 200° | - | - |
| 1778043317 | 22.22° C | 71% | 1013.3 hPa | 0 mm | 1.34 m/s, 260° | - | - |
| 1778043018 | 22.22° C | 71% | 1013.3 hPa | 0 mm | 0.89 m/s, 200° | - | - |
| 1778042717 | 22.22° C | 70% | 1013.2 hPa | 0 mm | 1.34 m/s, 200° | - | - |
| 1778042417 | 22.22° C | 70% | 1013.1 hPa | 0 mm | 0.89 m/s, 184° | - | - |
| 1778042117 | 22.22° C | 70% | 1013.1 hPa | 0 mm | 3.13 m/s, 199° | - | - |
| 1778041817 | 22.22° C | 70% | 1013 hPa | 0 mm | 1.79 m/s, 229° | - | - |
| 1778041517 | 22.22° C | 69% | 1012.9 hPa | 0 mm | 1.34 m/s, 264° | - | - |
| 1778041217 | 22.22° C | 69% | 1013 hPa | 0 mm | 0.89 m/s, 189° | - | - |
| 1778040917 | 22.22° C | 69% | 1013.1 hPa | 0 mm | 1.34 m/s, 195° | - | - |
| 1778040617 | 22.22° C | 69% | 1013.2 hPa | 0 mm | 1.34 m/s, 178° | - | - |
| 1778040317 | 22.22° C | 69% | 1013.1 hPa | 0 mm | 0.89 m/s, 199° | - | - |
| 1778040017 | 22.22° C | 69% | 1013.1 hPa | 0 mm | 0.45 m/s, 224° | - | - |
| 1778039718 | 22.78° C | 68% | 1013.2 hPa | 0 mm | 1.34 m/s, 189° | - | - |
| 1778039417 | 22.22° C | 68% | 1013.2 hPa | 0 mm | 0.89 m/s, 186° | - | - |
| 1778039118 | 22.78° C | 68% | 1013.1 hPa | 0 mm | 0.89 m/s, 199° | - | - |
| 1778038817 | 22.78° C | 67% | 1013.1 hPa | 0 mm | 0.89 m/s, 217° | - | - |
| 1778038518 | 22.78° C | 67% | 1013 hPa | 0 mm | 0.89 m/s, 191° | - | - |
| 1778038217 | 22.22° C | 68% | 1013.1 hPa | 0 mm | 0.45 m/s, 258° | - | - |
* Rain latest 24 hours (hover to see other rain measurements)
** Current wind speed in m/s (hover to see current wind gust speed)